sat.trackr.live / text

‹ back to catalog

STARLINK-37482

NORAD 68850 · 2026-094M

PAYLOAD ACTIVE UNKNOWN

§ Identity

Operator
Country
US
Launch date
2026-04-26
Launch site
AFWTR
Launch vehicle
Mass (kg)
RCS (m²)

Purposes: comms

External: N2YO · Heavens-Above · Gunter

§ Orbital elements

Epoch: 2026-05-25T00:06:58.008384Z

Period
92.95 min
Inclination
97.2835°
Eccentricity
0.0001305
Mean motion
15.49217448 rev/d
Perigee alt
418.1 km
Apogee alt
419.9 km
Semi-major
6,797.2 km
B*
8.5068e-4
RAAN
159.5921°
Arg perigee
127.1315°
Mean anomaly
233.0056°
Rev number
448

§ Raw data

STARLINK-374821 68850U 26094M   26145.00483806  .00046496  00000+0  85068-3 0  99932 68850  97.2835 159.5921 0001305 127.1315 233.0056 15.49217448  4484

JSON: /api/v1/satellites/68850 · /tle

For live sub-satellite position, see the globe view (requires WebGL).

§ Visibility from observer

Set your observer location to see the next 7 days of passes ≥ 10°. The values pass through the URL so the page stays shareable.

No JS? Fill the form by hand. The geolocation button needs JavaScript.